Regional Weather Roundup
Issued by NWS

Current Version | Previous Version | Text Only | Print | Product List | Glossary On
Versions: 1 2 3 4 5 6 7 8 9 10 11 12 13 14 15 16 17 18 19 20 21 22 23 24 25 26 27 28 29 30 31 32 33 34 35 36 37 38 39 40 41 42 43 44 45 46 47 48 49 50
000
ASUS45 KREV 010810
RWRNV
NEVADA REGIONAL WEATHER ROUNDUP
NATIONAL WEATHER SERVICE RENO NV
1200 AM PST MON MAR 01 2021

NOTE: "FAIR" INDICATES FEW OR NO CLOUDS BELOW 12,000 FEET WITH NO
SIGNIFICANT WEATHER AND/OR OBSTRUCTIONS TO VISIBILITY.

NVZ001-003-004-010900-
WESTERN NEVADA

CITY           SKY/WX    TMP DP  RH WIND       PRES   REMARKS
RENO           CLEAR     31   9  39 W3        30.25F
CARSON CITY    FAIR      28   7  40 NW3       30.28S
MINDEN         FAIR      14   7  73 SE5       30.27S
SLIDE MTN        N/A     30  12  47 SW9         N/A
PYRAMID LAKE     N/A     37 N/A N/A S5          N/A
FALLON         CLEAR     30   8  39 SE7       30.27S
LOVELOCK       CLEAR     21   8  57 N3        30.27F
HAWTHORNE      CLEAR     28   0  29 CALM      30.27F
$$

NVZ002-CAZ072-073-010900-
NORTHERN AND CENTRAL SIERRA

CITY           SKY/WX    TMP DP  RH WIND       PRES   REMARKS
S. LAKE TAHOE  CLEAR     23  15  71 CALM      30.23S
TRUCKEE        CLEAR     19  16  86 CALM      30.25S
SQUAW VLY 8000   N/A     30  18  59 S7          N/A
BLUE CANYON    CLEAR     39  24  55 SE3       30.23S
MAMMOTH LAKES  FAIR      19  10  68 NW3       30.29F
BRIDGEPORT       N/A      1  -2  85 W1          N/A
$$

NVZ030-031-036-010900-
NORTHERN NEVADA

CITY           SKY/WX    TMP DP  RH WIND       PRES   REMARKS
ELKO           CLEAR     20  11  68 E7        30.34S
WINNEMUCCA     CLEAR     29  16  58 NE9       30.28F
BATTLE MOUNTAI SUNNY     30  19  64 NE13      30.32S
WENDOVER       CLEAR     19   7  59 CALM      30.40S
$$

NVZ035-037-010900-
CENTRAL NEVADA

CITY           SKY/WX    TMP DP  RH WIND       PRES   REMARKS
ELY            CLEAR     13   5  70 MISG      30.33R
EUREKA           N/A     16  11  80 CALM      30.31S
$$

NVZ013-014-010900-
SOUTH CENTRAL NEVADA

CITY           SKY/WX    TMP DP  RH WIND       PRES   REMARKS
TONOPAH        CLEAR     24   1  36 N5        30.30S
$$

NVZ017-020-022-010900-
SOUTHERN NEVADA

CITY           SKY/WX    TMP DP  RH WIND       PRES   REMARKS
LAS VEGAS      CLEAR     42   0  17 NW3       30.32R
N. LAS VEGAS   CLEAR     43   5  20 SW6       30.28R
NELLIS AFB     CLEAR     39   1  20 NE10      30.32
HENDERSON      CLEAR     36   1  22 S7        30.33R
MERCURY        CLEAR     39   0  19 NE8       30.30R
$$



USA.gov is the U.S. government's official web portal to all federal, state and local government web resources and services.